Stillwater, OK

7:07 AM CDT on October 01, 2016 (GMT -0500)
Stillwater Municipal

Weather History for KSWO - September, 2012

Change the Weather History Date:

Thursday, September 20, 2012

  Actual Average Record
Temperature  
Mean Temperature 74 °F -  
Max Temperature 89 °F 81 °F 98 °F (2016)
Min Temperature 60 °F 56 °F 42 °F (2003)
Cooling Degree Days 10    
Growing Degree Days 24 (Base 50)    
Moisture  
Dew Point 52 °F    
Average Humidity 47    
Maximum Humidity 75    
Minimum Humidity 30    
Precipitation  
Precipitation 0.00 in - - ()
Sea Level Pressure  
Sea Level Pressure 29.93 in    
Wind  
Wind Speed 6 mph (SE)    
Max Wind Speed 9 mph    
Max Gust Speed -    
Visibility 10 miles    
Events      
Averages and records for this station are not official NWS values.
T = Trace of Precipitation, MM = Missing Value Source: NWS Daily Summary

Daily Weather History Graph

Daily Weather History Graph

Search for Another Location

Airport or City:

Trip Planner

Search our weather history database for the weather conditions in past years. The results will help you decide how hot, cold, wet, or windy it might be!

Date:

Astronomy

Sep. 20, 2012 Rise Set
Actual Time 7:15 AM CDT 7:27 PM CDT
Civil Twilight 6:49 AM CDT 7:53 PM CDT
Nautical Twilight 6:19 AM CDT 8:22 PM CDT
Astronomical Twilight 5:48 AM CDT 8:53 PM CDT
Moon 12:24 PM CDT (9/20) 10:41 PM CDT (9/20)
Length of Visible Light 13h 03m
Length of Day
12h 12m
Waxing Crescent, 27% of the Moon is Illuminated
Sep 20
Waxing Crescent
Sep 22
First Quarter
Sep 29
Full
Oct 8
Last Quarter
Oct 15
New

Hourly Weather History & Observations

Time (CDT) Temp. Heat Index Dew Point Humidity Pressure Visibility Wind Dir Wind Speed Gust Speed Precip Events Conditions
12:53 AM 71.1 °F - 48.9 °F 45% 29.92 in 10.0 mi SSW 9.2 mph - N/A   Clear
1:53 AM 69.1 °F - 48.9 °F 49% 29.93 in 10.0 mi SSW 6.9 mph - N/A   Clear
2:53 AM 64.9 °F - 50.0 °F 58% 29.96 in 10.0 mi Calm Calm - N/A   Clear
3:53 AM 61.0 °F - 50.0 °F 67% 29.96 in 10.0 mi Calm Calm - N/A   Clear
5:53 AM 64.0 °F - 51.1 °F 63% 29.95 in 10.0 mi South 8.1 mph - N/A   Clear
6:53 AM 62.1 °F - 50.0 °F 65% 29.96 in 10.0 mi South 5.8 mph - N/A   Clear
7:53 AM 60.1 °F - 52.0 °F 75% 29.98 in 10.0 mi SSE 3.5 mph - N/A   Clear
8:53 AM 68.0 °F - 50.0 °F 52% 29.97 in 10.0 mi SSE 4.6 mph - N/A   Clear
9:53 AM 72.0 °F - 50.0 °F 46% 29.98 in 10.0 mi South 4.6 mph - N/A   Clear
10:53 AM 77.0 °F - 52.0 °F 42% 29.97 in 10.0 mi SW 5.8 mph - N/A   Clear
11:53 AM 82.0 °F - 52.0 °F 35% 29.97 in 10.0 mi Calm Calm - N/A   Clear
12:53 PM 84.9 °F 83.2 °F 53.1 °F 33% 29.96 in 10.0 mi Variable 4.6 mph - N/A   Clear
1:53 PM 84.9 °F 83.2 °F 53.1 °F 33% 29.94 in 10.0 mi Calm Calm - N/A   Clear
2:53 PM 88.0 °F 85.9 °F 54.0 °F 31% 29.91 in 10.0 mi East 8.1 mph - N/A   Clear
3:53 PM 89.1 °F 86.9 °F 54.0 °F 30% 29.90 in 10.0 mi ESE 8.1 mph - N/A   Clear
4:53 PM 88.0 °F 85.7 °F 53.1 °F 30% 29.89 in 10.0 mi East 5.8 mph - N/A   Clear
5:53 PM 88.0 °F 85.9 °F 54.0 °F 31% 29.87 in 10.0 mi ESE 6.9 mph - N/A   Clear
6:53 PM 84.0 °F 82.6 °F 54.0 °F 35% 29.87 in 10.0 mi East 6.9 mph - N/A   Clear
7:53 PM 78.1 °F - 55.0 °F 45% 29.88 in 10.0 mi East 8.1 mph - N/A   Clear
8:53 PM 77.0 °F - 55.0 °F 47% 29.88 in 10.0 mi East 8.1 mph - N/A   Clear
9:53 PM 73.9 °F - 55.9 °F 53% 29.89 in 10.0 mi East 6.9 mph - N/A   Clear
11:53 PM 69.1 °F - 57.0 °F 65% 29.87 in 10.0 mi Calm Calm - N/A   Clear